Time,TemperatureF,DewpointF,PressureIn,WindDirection,WindDirectionDegrees,WindSpeedMPH,WindSpeedGustMPH,Humidity,HourlyPrecipIn,Conditions,Clouds,dailyrainin,SoftwareType,DateUTC
2013-06-13 00:00:00,82.0,75.6,29.88,SW,220,3.0,3.0,81,0.00,,,0.01,Wunderground v.1.15,2013-06-13 04:00:00,
2013-06-13 00:04:00,81.9,75.5,29.88,SW,220,3.0,4.0,81,0.00,,,0.00,Wunderground v.1.15,2013-06-13 04:04:00,
2013-06-13 00:10:00,81.9,75.5,29.88,SSW,211,3.0,4.0,81,0.00,,,0.00,Wunderground v.1.15,2013-06-13 04:10:00,
2013-06-13 00:19:00,81.9,75.5,29.87,SW,216,4.0,4.0,81,0.00,,,0.00,Wunderground v.1.15,2013-06-13 04:19:00,
2013-06-13 00:25:00,82.0,75.6,29.87,SW,224,4.0,4.0,81,0.00,,,0.00,Wunderground v.1.15,2013-06-13 04:25:00,
2013-06-13 00:35:00,82.1,74.9,29.87,SW,227,4.0,6.0,79,0.00,,,0.00,Wunderground v.1.15,2013-06-13 04:35:00,
2013-06-13 00:39:00,82.2,75.0,29.86,SW,221,6.0,6.0,79,0.00,,,0.00,Wunderground v.1.15,2013-06-13 04:39:00,
2013-06-13 00:45:00,82.0,75.2,29.86,SW,231,6.0,6.0,80,0.00,,,0.00,Wunderground v.1.15,2013-06-13 04:45:00,
2013-06-13 00:55:00,81.6,75.2,29.85,SW,217,5.0,6.0,81,0.00,,,0.00,Wunderground v.1.15,2013-06-13 04:55:00,
2013-06-13 01:05:00,81.4,75.4,29.85,SW,224,6.0,7.0,82,0.00,,,0.00,Wunderground v.1.15,2013-06-13 05:05:00,
2013-06-13 01:15:00,81.0,75.3,29.85,SW,225,5.0,6.0,83,0.00,,,0.00,Wunderground v.1.15,2013-06-13 05:15:00,
2013-06-13 01:24:00,80.9,75.6,29.85,SW,224,5.0,8.0,84,0.00,,,0.00,Wunderground v.1.15,2013-06-13 05:24:00,
2013-06-13 01:30:00,80.9,75.6,29.85,SW,215,5.0,7.0,84,0.00,,,0.00,Wunderground v.1.15,2013-06-13 05:30:00,
2013-06-13 01:40:00,80.6,75.7,29.85,SW,236,4.0,4.0,85,0.00,,,0.00,Wunderground v.1.15,2013-06-13 05:40:00,
2013-06-13 01:50:00,80.3,75.4,29.84,WSW,242,4.0,4.0,85,0.00,,,0.00,Wunderground v.1.15,2013-06-13 05:50:00,
2013-06-13 02:00:00,80.1,75.5,29.84,SW,233,4.0,4.0,86,0.00,,,0.00,Wunderground v.1.15,2013-06-13 06:00:00,
2013-06-13 02:09:00,80.0,75.4,29.84,SW,234,4.0,5.0,86,0.00,,,0.00,Wunderground v.1.15,2013-06-13 06:09:00,
2013-06-13 02:15:00,80.0,75.4,29.84,SW,229,4.0,5.0,86,0.00,,,0.00,Wunderground v.1.15,2013-06-13 06:15:00,
2013-06-13 02:25:00,79.9,75.3,29.83,SW,227,3.0,4.0,86,0.00,,,0.00,Wunderground v.1.15,2013-06-13 06:25:00,
2013-06-13 02:30:00,79.8,75.6,29.83,SW,229,3.0,3.0,87,0.00,,,0.00,Wunderground v.1.15,2013-06-13 06:30:00,
2013-06-13 02:40:00,79.8,75.6,29.83,WSW,250,3.0,3.0,87,0.00,,,0.00,Wunderground v.1.15,2013-06-13 06:40:00,
2013-06-13 02:49:00,79.6,75.4,29.84,WSW,242,2.0,4.0,87,0.00,,,0.00,Wunderground v.1.15,2013-06-13 06:49:00,
2013-06-13 02:55:00,79.5,75.3,29.84,SW,232,3.0,4.0,87,0.00,,,0.00,Wunderground v.1.15,2013-06-13 06:55:00,
2013-06-13 03:05:00,79.4,75.5,29.84,WSW,245,2.0,3.0,88,0.00,,,0.00,Wunderground v.1.15,2013-06-13 07:05:00,
2013-06-13 03:15:00,79.5,75.3,29.84,SW,233,3.0,4.0,87,0.00,,,0.00,Wunderground v.1.15,2013-06-13 07:15:00,
2013-06-13 03:25:00,79.4,75.5,29.84,SW,227,1.0,2.0,88,0.00,,,0.00,Wunderground v.1.15,2013-06-13 07:25:00,
2013-06-13 03:35:00,79.3,75.4,29.84,SW,227,1.0,1.0,88,0.00,,,0.00,Wunderground v.1.15,2013-06-13 07:35:00,
2013-06-13 03:45:00,79.1,75.2,29.84,WSW,249,0.0,1.0,88,0.00,,,0.00,Wunderground v.1.15,2013-06-13 07:45:00,
2013-06-13 03:55:00,79.0,75.5,29.84,SW,228,2.0,4.0,89,0.00,,,0.00,Wunderground v.1.15,2013-06-13 07:55:00,
2013-06-13 04:05:00,78.9,75.4,29.84,SW,218,3.0,5.0,89,0.00,,,0.00,Wunderground v.1.15,2013-06-13 08:05:00,
2013-06-13 04:15:00,78.8,75.3,29.84,SW,232,4.0,4.0,89,0.00,,,0.00,Wunderground v.1.15,2013-06-13 08:15:00,
2013-06-13 04:25:00,78.7,75.5,29.84,SW,229,3.0,5.0,90,0.00,,,0.00,Wunderground v.1.15,2013-06-13 08:25:00,
2013-06-13 04:35:00,78.7,75.5,29.84,WSW,248,4.0,5.0,90,0.00,,,0.00,Wunderground v.1.15,2013-06-13 08:35:00,
2013-06-13 04:45:00,78.5,75.3,29.84,SW,234,4.0,4.0,90,0.00,,,0.00,Wunderground v.1.15,2013-06-13 08:45:00,
2013-06-13 04:55:00,78.4,75.2,29.83,SW,224,4.0,5.0,90,0.00,,,0.00,Wunderground v.1.15,2013-06-13 08:55:00,
2013-06-13 05:05:00,78.4,75.6,29.83,WSW,245,4.0,4.0,91,0.00,,,0.00,Wunderground v.1.15,2013-06-13 09:05:00,
2013-06-13 05:15:00,78.3,75.5,29.83,SW,236,3.0,6.0,91,0.00,,,0.00,Wunderground v.1.15,2013-06-13 09:15:00,
2013-06-13 05:25:00,78.3,75.5,29.83,WSW,244,4.0,5.0,91,0.00,,,0.00,Wunderground v.1.15,2013-06-13 09:25:00,
2013-06-13 05:35:00,78.2,75.4,29.83,SW,218,4.0,5.0,91,0.00,,,0.00,Wunderground v.1.15,2013-06-13 09:35:00,
2013-06-13 05:45:00,78.2,75.4,29.83,WSW,248,3.0,4.0,91,0.00,,,0.00,Wunderground v.1.15,2013-06-13 09:45:00,
2013-06-13 05:55:00,78.1,75.3,29.83,WSW,250,3.0,3.0,91,0.00,,,0.00,Wunderground v.1.15,2013-06-13 09:55:00,
2013-06-13 06:04:00,78.1,75.3,29.83,SW,225,4.0,5.0,91,0.00,,,0.00,Wunderground v.1.15,2013-06-13 10:04:00,
2013-06-13 06:10:00,78.1,75.3,29.83,SW,233,4.0,4.0,91,0.00,,,0.00,Wunderground v.1.15,2013-06-13 10:10:00,
2013-06-13 06:20:00,78.0,75.2,29.83,SW,219,3.0,3.0,91,0.00,,,0.00,Wunderground v.1.15,2013-06-13 10:20:00,
2013-06-13 06:30:00,78.0,75.2,29.83,WSW,256,3.0,3.0,91,0.00,,,0.00,Wunderground v.1.15,2013-06-13 10:30:00,
2013-06-13 06:40:00,78.1,75.3,29.83,WSW,243,4.0,6.0,91,0.00,,,0.00,Wunderground v.1.15,2013-06-13 10:40:00,
2013-06-13 06:50:00,78.2,75.4,29.83,SW,226,5.0,5.0,91,0.00,,,0.00,Wunderground v.1.15,2013-06-13 10:50:00,
2013-06-13 07:00:00,78.2,75.4,29.82,SW,222,4.0,4.0,91,0.00,,,0.00,Wunderground v.1.15,2013-06-13 11:00:00,
2013-06-13 07:10:00,78.4,75.6,29.83,SW,222,4.0,5.0,91,0.00,,,0.00,Wunderground v.1.15,2013-06-13 11:10:00,
2013-06-13 07:20:00,78.4,75.6,29.83,SW,232,4.0,4.0,91,0.00,,,0.00,Wunderground v.1.15,2013-06-13 11:20:00,
2013-06-13 07:30:00,78.7,75.8,29.83,SW,229,4.0,4.0,91,0.00,,,0.00,Wunderground v.1.15,2013-06-13 11:30:00,
2013-06-13 07:39:00,79.3,76.1,29.83,WSW,248,5.0,8.0,90,0.00,,,0.00,Wunderground v.1.15,2013-06-13 11:39:00,
2013-06-13 07:45:00,79.6,76.1,29.83,WSW,254,5.0,8.0,89,0.00,,,0.01,Wunderground v.1.15,2013-06-13 11:45:00,
2013-06-13 07:55:00,80.2,76.3,29.83,WSW,239,4.0,7.0,88,0.00,,,0.01,Wunderground v.1.15,2013-06-13 11:55:00,
2013-06-13 08:05:00,80.4,76.2,29.82,West,264,4.0,5.0,87,0.00,,,0.01,Wunderground v.1.15,2013-06-13 12:05:00,
2013-06-13 08:15:00,81.3,76.7,29.82,West,264,3.0,3.0,86,0.00,,,0.01,Wunderground v.1.15,2013-06-13 12:15:00,
2013-06-13 08:25:00,82.2,76.5,29.82,WSW,254,4.0,4.0,83,0.00,,,0.01,Wunderground v.1.15,2013-06-13 12:25:00,
2013-06-13 08:34:00,83.2,77.5,29.82,WSW,254,4.0,5.0,83,0.00,,,0.01,Wunderground v.1.15,2013-06-13 12:34:00,
2013-06-13 08:40:00,83.4,77.0,29.82,WSW,254,5.0,5.0,81,0.00,,,0.01,Wunderground v.1.15,2013-06-13 12:40:00,
2013-06-13 08:50:00,84.0,77.2,29.82,WSW,246,6.0,6.0,80,0.00,,,0.01,Wunderground v.1.15,2013-06-13 12:50:00,
2013-06-13 09:00:00,84.8,77.2,29.81,WSW,241,5.0,5.0,78,0.00,,,0.01,Wunderground v.1.15,2013-06-13 13:00:00,
2013-06-13 09:09:00,85.6,77.6,29.81,West,274,5.0,5.0,77,0.00,,,0.01,Wunderground v.1.15,2013-06-13 13:09:00,
2013-06-13 09:14:00,85.7,77.3,29.81,SW,223,5.0,5.0,76,0.00,,,0.01,Wunderground v.1.15,2013-06-13 13:14:00,
2013-06-13 09:20:00,86.2,77.3,29.81,SW,226,5.0,5.0,75,0.00,,,0.01,Wunderground v.1.15,2013-06-13 13:20:00,
2013-06-13 09:30:00,86.6,77.7,29.81,SW,236,6.0,6.0,75,0.00,,,0.01,Wunderground v.1.15,2013-06-13 13:30:00,
2013-06-13 09:40:00,87.1,77.4,29.81,West,265,5.0,5.0,73,0.00,,,0.01,Wunderground v.1.15,2013-06-13 13:40:00,
2013-06-13 09:49:00,87.4,77.3,29.81,West,277,6.0,6.0,72,0.00,,,0.01,Wunderground v.1.15,2013-06-13 13:49:00,
2013-06-13 09:55:00,87.8,78.1,29.81,West,279,6.0,9.0,73,0.00,,,0.01,Wunderground v.1.15,2013-06-13 13:55:00,
2013-06-13 10:05:00,88.0,77.8,29.81,West,274,7.0,7.0,72,0.00,,,0.01,Wunderground v.1.15,2013-06-13 14:05:00,
2013-06-13 10:15:00,88.5,77.5,29.81,WSW,248,6.0,9.0,70,0.00,,,0.01,Wunderground v.1.15,2013-06-13 14:15:00,
2013-06-13 10:25:00,88.9,77.4,29.81,SW,219,7.0,10.0,69,0.00,,,0.01,Wunderground v.1.15,2013-06-13 14:25:00,
2013-06-13 10:34:00,89.5,77.5,29.81,WSW,250,7.0,8.0,68,0.00,,,0.01,Wunderground v.1.15,2013-06-13 14:34:00,
2013-06-13 10:40:00,89.7,76.4,29.81,SSW,205,6.0,9.0,65,0.00,,,0.01,Wunderground v.1.15,2013-06-13 14:40:00,
2013-06-13 10:50:00,90.0,76.6,29.81,SW,219,8.0,8.0,65,0.00,,,0.01,Wunderground v.1.15,2013-06-13 14:50:00,
2013-06-13 11:00:00,90.3,76.9,29.80,West,268,7.0,11.0,65,0.00,,,0.01,Wunderground v.1.15,2013-06-13 15:00:00,
2013-06-13 11:10:00,90.7,76.4,29.80,WSW,250,9.0,9.0,63,0.00,,,0.01,Wunderground v.1.15,2013-06-13 15:10:00,
2013-06-13 11:20:00,91.1,76.7,29.80,WSW,253,9.0,13.0,63,0.00,,,0.01,Wunderground v.1.15,2013-06-13 15:20:00,
2013-06-13 11:29:00,91.5,77.1,29.79,WSW,244,8.0,8.0,63,0.00,,,0.01,Wunderground v.1.15,2013-06-13 15:29:00,
2013-06-13 11:35:00,91.9,77.0,29.79,SW,227,8.0,10.0,62,0.00,,,0.01,Wunderground v.1.15,2013-06-13 15:35:00,
2013-06-13 11:40:00,92.2,78.3,29.79,West,274,9.0,10.0,64,0.00,,,0.01,Wunderground v.1.15,2013-06-13 15:40:00,
2013-06-13 11:49:00,92.2,76.3,29.79,SW,221,10.0,18.0,60,0.00,,,0.01,Wunderground v.1.15,2013-06-13 15:49:00,
2013-06-13 11:55:00,92.3,76.4,29.79,SW,235,12.0,18.0,60,0.00,,,0.01,Wunderground v.1.15,2013-06-13 15:55:00,
2013-06-13 12:05:00,92.5,75.6,29.78,WNW,294,9.0,10.0,58,0.00,,,0.01,Wunderground v.1.15,2013-06-13 16:05:00,
2013-06-13 12:15:00,92.5,75.6,29.78,West,265,10.0,12.0,58,0.00,,,0.01,Wunderground v.1.15,2013-06-13 16:15:00,
2013-06-13 12:24:00,92.8,76.4,29.77,West,264,8.0,12.0,59,0.00,,,0.01,Wunderground v.1.15,2013-06-13 16:24:00,
2013-06-13 12:30:00,92.8,76.9,29.77,SW,220,8.0,9.0,60,0.00,,,0.01,Wunderground v.1.15,2013-06-13 16:30:00,
2013-06-13 12:40:00,93.0,75.5,29.76,SSW,213,11.0,11.0,57,0.00,,,0.01,Wunderground v.1.15,2013-06-13 16:40:00,
2013-06-13 12:50:00,93.1,75.1,29.76,WSW,255,11.0,11.0,56,0.00,,,0.01,Wunderground v.1.15,2013-06-13 16:50:00,
2013-06-13 12:59:00,93.2,75.2,29.76,WSW,240,11.0,11.0,56,0.00,,,0.01,Wunderground v.1.15,2013-06-13 16:59:00,
2013-06-13 13:05:00,93.4,74.8,29.76,SW,223,12.0,12.0,55,0.00,,,0.01,Wunderground v.1.15,2013-06-13 17:05:00,
2013-06-13 13:15:00,93.3,74.7,29.76,WSW,252,10.0,15.0,55,0.00,,,0.01,Wunderground v.1.15,2013-06-13 17:15:00,
2013-06-13 13:25:00,93.5,74.9,29.75,WSW,251,10.0,14.0,55,0.00,,,0.01,Wunderground v.1.15,2013-06-13 17:25:00,
2013-06-13 13:35:00,93.8,74.1,29.75,WSW,257,12.0,12.0,53,0.00,,,0.01,Wunderground v.1.15,2013-06-13 17:35:00,
2013-06-13 13:44:00,93.9,74.7,29.75,West,276,9.0,13.0,54,0.00,,,0.01,Wunderground v.1.15,2013-06-13 17:44:00,
2013-06-13 13:50:00,94.1,74.4,29.75,SW,229,9.0,9.0,53,0.00,,,0.01,Wunderground v.1.15,2013-06-13 17:50:00,
2013-06-13 14:00:00,94.3,74.0,29.74,West,278,8.0,8.0,52,0.00,,,0.01,Wunderground v.1.15,2013-06-13 18:00:00,
2013-06-13 14:10:00,94.0,74.3,29.73,SSW,206,10.0,11.0,53,0.00,,,0.01,Wunderground v.1.15,2013-06-13 18:10:00,
2013-06-13 14:20:00,94.0,74.8,29.73,SSW,204,10.0,10.0,54,0.00,,,0.01,Wunderground v.1.15,2013-06-13 18:20:00,
2013-06-13 14:30:00,94.4,74.6,29.73,WSW,251,10.0,10.0,53,0.00,,,0.01,Wunderground v.1.15,2013-06-13 18:30:00,
2013-06-13 14:39:00,94.1,73.8,29.72,WSW,254,10.0,14.0,52,0.00,,,0.01,Wunderground v.1.15,2013-06-13 18:39:00,
2013-06-13 14:45:00,94.0,74.3,29.71,West,264,11.0,14.0,53,0.00,,,0.01,Wunderground v.1.15,2013-06-13 18:45:00,
2013-06-13 14:55:00,94.2,74.4,29.71,West,277,10.0,11.0,53,0.00,,,0.01,Wunderground v.1.15,2013-06-13 18:55:00,
2013-06-13 15:05:00,94.1,74.4,29.71,West,261,12.0,12.0,53,0.00,,,0.01,Wunderground v.1.15,2013-06-13 19:05:00,
2013-06-13 15:14:00,94.3,74.5,29.70,West,276,11.0,11.0,53,0.00,,,0.01,Wunderground v.1.15,2013-06-13 19:14:00,
2013-06-13 15:20:00,94.2,73.9,29.70,WSW,241,11.0,11.0,52,0.00,,,0.01,Wunderground v.1.15,2013-06-13 19:20:00,
2013-06-13 15:30:00,94.3,74.0,29.70,WSW,241,11.0,12.0,52,0.00,,,0.01,Wunderground v.1.15,2013-06-13 19:30:00,
2013-06-13 15:40:00,94.3,74.0,29.70,West,260,11.0,11.0,52,0.00,,,0.01,Wunderground v.1.15,2013-06-13 19:40:00,
2013-06-13 15:50:00,94.5,73.6,29.69,West,271,9.0,12.0,51,0.00,,,0.01,Wunderground v.1.15,2013-06-13 19:50:00,
2013-06-13 15:55:00,94.6,73.7,29.70,WSW,256,9.0,12.0,51,0.00,,,0.01,Wunderground v.1.15,2013-06-13 19:55:00,
2013-06-13 16:04:00,94.5,73.6,29.69,WSW,250,10.0,10.0,51,0.00,,,0.01,Wunderground v.1.15,2013-06-13 20:04:00,
2013-06-13 16:10:00,94.4,72.9,29.69,WSW,246,11.0,14.0,50,0.00,,,0.01,Wunderground v.1.15,2013-06-13 20:10:00,
2013-06-13 16:20:00,94.4,74.1,29.69,West,271,10.0,11.0,52,0.00,,,0.01,Wunderground v.1.15,2013-06-13 20:20:00,
2013-06-13 16:30:00,94.2,73.3,29.69,SW,219,10.0,10.0,51,0.00,,,0.01,Wunderground v.1.15,2013-06-13 20:30:00,
2013-06-13 16:35:00,94.0,73.7,29.68,WSW,242,12.0,12.0,52,0.00,,,0.01,Wunderground v.1.15,2013-06-13 20:35:00,
2013-06-13 16:45:00,93.9,74.7,29.69,West,260,11.0,11.0,54,0.00,,,0.01,Wunderground v.1.15,2013-06-13 20:45:00,
2013-06-13 16:55:00,93.8,74.1,29.68,WSW,248,11.0,17.0,53,0.00,,,0.01,Wunderground v.1.15,2013-06-13 20:55:00,
2013-06-13 17:05:00,93.9,74.7,29.68,WSW,254,11.0,12.0,54,0.00,,,0.01,Wunderground v.1.15,2013-06-13 21:05:00,
2013-06-13 17:15:00,93.7,74.5,29.67,West,259,11.0,16.0,54,0.00,,,0.01,Wunderground v.1.15,2013-06-13 21:15:00,
2013-06-13 17:25:00,93.7,74.5,29.66,WSW,243,10.0,16.0,54,0.00,,,0.01,Wunderground v.1.15,2013-06-13 21:25:00,
2013-06-13 17:34:00,93.4,74.3,29.66,West,274,10.0,12.0,54,0.00,,,0.01,Wunderground v.1.15,2013-06-13 21:34:00,
2013-06-13 17:40:00,93.4,74.8,29.66,SW,218,10.0,12.0,55,0.00,,,0.01,Wunderground v.1.15,2013-06-13 21:40:00,
2013-06-13 17:50:00,93.2,74.1,29.66,SW,221,9.0,9.0,54,0.00,,,0.01,Wunderground v.1.15,2013-06-13 21:50:00,
2013-06-13 18:00:00,93.3,74.2,29.66,SSW,212,8.0,8.0,54,0.00,,,0.01,Wunderground v.1.15,2013-06-13 22:00:00,
2013-06-13 18:10:00,93.0,74.4,29.66,SW,226,10.0,10.0,55,0.00,,,0.01,Wunderground v.1.15,2013-06-13 22:10:00,
2013-06-13 18:19:00,92.6,74.1,29.66,WSW,244,12.0,12.0,55,0.00,,,0.01,Wunderground v.1.15,2013-06-13 22:19:00,
2013-06-13 18:25:00,92.6,74.1,29.66,SW,225,11.0,12.0,55,0.00,,,0.01,Wunderground v.1.15,2013-06-13 22:25:00,
2013-06-13 18:35:00,92.4,73.9,29.66,WSW,241,9.0,12.0,55,0.00,,,0.01,Wunderground v.1.15,2013-06-13 22:35:00,
2013-06-13 18:45:00,92.2,74.2,29.67,WSW,258,9.0,13.0,56,0.00,,,0.01,Wunderground v.1.15,2013-06-13 22:45:00,
2013-06-13 18:55:00,91.8,73.9,29.67,SSW,205,8.0,11.0,56,0.00,,,0.01,Wunderground v.1.15,2013-06-13 22:55:00,
2013-06-13 19:04:00,91.5,74.1,29.67,West,261,6.0,9.0,57,0.00,,,0.01,Wunderground v.1.15,2013-06-13 23:04:00,
2013-06-13 19:10:00,91.3,73.9,29.67,West,273,6.0,6.0,57,0.00,,,0.01,Wunderground v.1.15,2013-06-13 23:10:00,
2013-06-13 19:20:00,91.0,73.1,29.67,WSW,240,8.0,10.0,56,0.00,,,0.01,Wunderground v.1.15,2013-06-13 23:20:00,
2013-06-13 19:30:00,90.6,73.3,29.67,SW,217,8.0,10.0,57,0.00,,,0.01,Wunderground v.1.15,2013-06-13 23:30:00,
2013-06-13 19:40:00,90.0,73.2,29.67,SW,224,7.0,7.0,58,0.00,,,0.01,Wunderground v.1.15,2013-06-13 23:40:00,
2013-06-13 19:50:00,89.6,72.9,29.68,WSW,258,6.0,6.0,58,0.00,,,0.01,Wunderground v.1.15,2013-06-13 23:50:00,
2013-06-13 20:00:00,89.1,72.9,29.69,WSW,246,5.0,5.0,59,0.00,,,0.01,Wunderground v.1.15,2013-06-14 00:00:00,
2013-06-13 20:09:00,88.7,73.0,29.69,WSW,243,5.0,9.0,60,0.00,,,0.01,Wunderground v.1.15,2013-06-14 00:09:00,
2013-06-13 20:15:00,88.5,72.8,29.68,WSW,257,5.0,9.0,60,0.00,,,0.01,Wunderground v.1.15,2013-06-14 00:15:00,
2013-06-13 20:25:00,88.1,73.0,29.67,SW,224,5.0,7.0,61,0.00,,,0.01,Wunderground v.1.15,2013-06-14 00:25:00,
2013-06-13 20:35:00,87.7,73.1,29.68,SW,219,5.0,5.0,62,0.00,,,0.01,Wunderground v.1.15,2013-06-14 00:35:00,
2013-06-13 20:45:00,87.2,73.5,29.66,SSW,213,5.0,7.0,64,0.00,,,0.01,Wunderground v.1.15,2013-06-14 00:45:00,
2013-06-13 20:54:00,86.9,73.7,29.66,SSW,209,6.0,7.0,65,0.00,,,0.01,Wunderground v.1.15,2013-06-14 00:54:00,
2013-06-13 21:00:00,86.6,73.9,29.66,SSW,200,7.0,7.0,66,0.00,,,0.01,Wunderground v.1.15,2013-06-14 01:00:00,
2013-06-13 21:10:00,86.3,74.0,29.64,SW,215,8.0,8.0,67,0.00,,,0.01,Wunderground v.1.15,2013-06-14 01:10:00,
2013-06-13 21:20:00,86.1,73.9,29.66,SW,222,6.0,8.0,67,0.00,,,0.01,Wunderground v.1.15,2013-06-14 01:20:00,
2013-06-13 21:30:00,86.0,73.8,29.66,WSW,240,7.0,7.0,67,0.00,,,0.01,Wunderground v.1.15,2013-06-14 01:30:00,
2013-06-13 21:39:00,85.9,73.7,29.67,SW,214,6.0,7.0,67,0.00,,,0.01,Wunderground v.1.15,2013-06-14 01:39:00,
2013-06-13 21:45:00,85.7,73.5,29.67,SW,219,6.0,8.0,67,0.00,,,0.01,Wunderground v.1.15,2013-06-14 01:45:00,
2013-06-13 21:50:00,85.6,73.4,29.66,WSW,244,7.0,7.0,67,0.00,,,0.01,Wunderground v.1.15,2013-06-14 01:50:00,
2013-06-13 21:59:00,85.3,73.5,29.66,West,259,7.0,7.0,68,0.00,,,0.01,Wunderground v.1.15,2013-06-14 01:59:00,
2013-06-13 22:05:00,85.1,73.3,29.65,WSW,237,7.0,7.0,68,0.00,,,0.01,Wunderground v.1.15,2013-06-14 02:05:00,
2013-06-13 22:15:00,84.8,73.5,29.65,West,259,7.0,7.0,69,0.00,,,0.01,Wunderground v.1.15,2013-06-14 02:15:00,
2013-06-13 22:24:00,84.4,73.5,29.66,SSW,211,7.0,9.0,70,0.00,,,0.01,Wunderground v.1.15,2013-06-14 02:24:00,
2013-06-13 22:30:00,84.3,73.4,29.67,SW,235,7.0,7.0,70,0.00,,,0.01,Wunderground v.1.15,2013-06-14 02:30:00,
2013-06-13 22:40:00,84.2,73.8,29.67,WSW,250,5.0,5.0,71,0.00,,,0.01,Wunderground v.1.15,2013-06-14 02:40:00,
2013-06-13 22:50:00,84.2,73.8,29.67,WSW,256,6.0,11.0,71,0.00,,,0.01,Wunderground v.1.15,2013-06-14 02:50:00,
2013-06-13 23:00:00,84.0,73.6,29.67,WSW,254,6.0,6.0,71,0.00,,,0.01,Wunderground v.1.15,2013-06-14 03:00:00,
2013-06-13 23:09:00,83.6,73.6,29.67,SW,226,6.0,6.0,72,0.00,,,0.01,Wunderground v.1.15,2013-06-14 03:09:00,
2013-06-13 23:15:00,83.6,73.6,29.67,SW,235,5.0,6.0,72,0.00,,,0.01,Wunderground v.1.15,2013-06-14 03:15:00,
2013-06-13 23:25:00,83.3,73.7,29.66,SW,223,6.0,8.0,73,0.00,,,0.01,Wunderground v.1.15,2013-06-14 03:25:00,
2013-06-13 23:35:00,83.1,73.5,29.67,WSW,257,5.0,7.0,73,0.00,,,0.01,Wunderground v.1.15,2013-06-14 03:35:00,
2013-06-13 23:45:00,82.9,73.8,29.68,WNW,292,5.0,7.0,74,0.00,,,0.01,Wunderground v.1.15,2013-06-14 03:45:00,
2013-06-13 23:55:00,82.9,73.4,29.68,NE,51,5.0,5.0,73,0.00,,,0.01,Wunderground v.1.15,2013-06-14 03:55:00,